Change the Weather History Date:

Saturday, October 11, 2014

  Actual Average Record
Temperature  
Mean Temperature 56 °F -  
Max Temperature 60 °F 65 °F 80 °F (2010)
Min Temperature 53 °F 50 °F 44 °F (2012)
Degree Days  
Heating Degree Days 8    
Growing Degree Days 6 (Base 50)    
Moisture  
Dew Point 52 °F    
Average Humidity 85    
Maximum Humidity 88    
Minimum Humidity 82    
Precipitation  
Precipitation 0.59 in - - ()
Sea Level Pressure  
Sea Level Pressure 30.04 in    
Wind  
Wind Speed 8 mph (NNE)    
Max Wind Speed 16 mph    
Max Gust Speed 18 mph    
Visibility 8 miles    
Events      
Averages and records for this station are not official NWS values.
T = Trace of Precipitation, MM = Missing Value Source: NWS Daily Summary

Daily Weather History Graph

Daily Weather History Graph

Search for Another Location

Airport or City:

Trip Planner

Search our weather history database for the weather conditions in past years. The results will help you decide how hot, cold, wet, or windy it might be!

Date:

Astronomy

Oct. 11, 2014 Rise Set
Actual Time 7:05 AM EDT 6:26 PM EDT
Civil Twilight 6:38 AM EDT 6:53 PM EDT
Nautical Twilight 6:07 AM EDT 7:24 PM EDT
Astronomical Twilight 5:36 AM EDT 7:55 PM EDT
Moon 8:54 PM EDT (10/11) 10:25 AM EDT (10/11)
Length of Visible Light 12h 15m
Length of Day
11h 21m
Waning Gibbous, 87% of the Moon is Illuminated
Oct 11
Waning Gibbous
Oct 15
Last Quarter
Oct 23
New
Oct 30
First Quarter
Nov 6
Full

Hourly Weather History & Observations

Time (EDT) Temp. Dew Point Humidity Pressure Visibility Wind Dir Wind Speed Gust Speed Precip Events Conditions
12:15 AM 57.2 °F 53.6 °F 88% 30.06 in 7.0 mi ENE 5.8 mph - 0.01 in   Overcast
12:35 AM 59.0 °F 53.6 °F 82% 30.05 in 6.0 mi ENE 8.1 mph - 0.02 in   Overcast
12:55 AM 59.0 °F 53.6 °F 82% 30.04 in 10.0 mi ENE 9.2 mph - 0.02 in   Overcast
1:15 AM 59.0 °F 53.6 °F 82% 30.04 in 5.0 mi NE 6.9 mph - 0.01 in   Overcast
1:35 AM 59.0 °F 53.6 °F 82% 30.04 in 5.0 mi ENE 8.1 mph - 0.09 in   Overcast
1:55 AM 59.0 °F 55.4 °F 88% 30.03 in 4.0 mi NE 9.2 mph - 0.12 in   Overcast
2:15 AM 59.0 °F 55.4 °F 88% 30.01 in 5.0 mi ENE 9.2 mph - 0.04 in   Overcast
2:35 AM 60.8 °F 55.4 °F 82% 29.99 in 5.0 mi ENE 10.4 mph - 0.05 in   Overcast
2:55 AM 60.8 °F 55.4 °F 82% 29.99 in 10.0 mi ENE 10.4 mph 18.4 mph 0.06 in   Overcast
3:15 AM 60.8 °F 55.4 °F 82% 29.98 in 10.0 mi ENE 9.2 mph - N/A   Overcast
3:35 AM 60.8 °F 55.4 °F 82% 29.97 in 10.0 mi NE 16.1 mph - N/A   Overcast
3:55 AM 60.8 °F 55.4 °F 82% 29.98 in 10.0 mi NNE 6.9 mph - N/A   Overcast
4:15 AM 60.8 °F 55.4 °F 82% 29.98 in 9.0 mi NE 9.2 mph - N/A   Overcast
4:35 AM 60.8 °F 55.4 °F 82% 29.97 in 10.0 mi NE 10.4 mph - N/A   Overcast
4:55 AM 60.8 °F 55.4 °F 82% 29.97 in 10.0 mi NE 8.1 mph - N/A   Overcast
5:15 AM 59.0 °F 53.6 °F 82% 29.97 in 10.0 mi North 9.2 mph - N/A   Overcast
5:35 AM 57.2 °F 53.6 °F 88% 29.97 in 10.0 mi NNE 9.2 mph - N/A   Overcast
5:55 AM 57.2 °F 53.6 °F 88% 29.97 in 9.0 mi NNE 9.2 mph - N/A   Overcast
6:15 AM 57.2 °F 53.6 °F 88% 29.98 in 7.0 mi NNE 9.2 mph - N/A   Overcast
6:35 AM 57.2 °F 53.6 °F 88% 29.97 in 5.0 mi NE 8.1 mph - N/A   Overcast
6:55 AM 57.2 °F 53.6 °F 88% 29.98 in 7.0 mi North 4.6 mph - N/A   Overcast
7:15 AM 57.2 °F 53.6 °F 88% 29.97 in 9.0 mi NNE 8.1 mph - N/A   Overcast
7:35 AM 57.2 °F 53.6 °F 88% 29.97 in 8.0 mi NE 10.4 mph - N/A   Overcast
7:55 AM 57.2 °F 53.6 °F 88% 29.97 in 10.0 mi NNE 5.8 mph - N/A   Overcast
8:15 AM 57.2 °F 51.8 °F 82% 29.98 in 4.0 mi NE 8.1 mph - 0.03 in   Overcast
8:35 AM 57.2 °F 51.8 °F 82% 29.98 in 5.0 mi North 9.2 mph - 0.10 in   Overcast
8:55 AM 55.4 °F 51.8 °F 88% 29.99 in 9.0 mi North 9.2 mph - 0.16 in   Overcast
9:15 AM 55.4 °F 51.8 °F 88% 30.01 in 5.0 mi NNW 5.8 mph - 0.04 in   Overcast
9:35 AM 55.4 °F 51.8 °F 88% 30.00 in 8.0 mi North 10.4 mph - 0.05 in   Overcast
9:55 AM 55.4 °F 50.0 °F 82% 30.00 in 10.0 mi North 9.2 mph - 0.05 in   Overcast
10:15 AM 53.6 °F 50.0 °F 88% 30.01 in 5.0 mi North 9.2 mph - 0.09 in   Overcast
10:35 AM 53.6 °F 50.0 °F 88% 30.03 in 6.0 mi North 9.2 mph - 0.13 in   Overcast
10:55 AM 55.4 °F 50.0 °F 82% 30.03 in 5.0 mi North 11.5 mph - 0.14 in   Overcast
11:15 AM 55.4 °F 51.8 °F 88% 30.03 in 3.0 mi NE 11.5 mph 17.3 mph 0.03 in   Overcast
11:35 AM 57.2 °F 51.8 °F 82% 30.02 in 10.0 mi NE 12.7 mph - 0.03 in   Overcast
11:55 AM 57.2 °F 53.6 °F 88% 30.02 in 10.0 mi NE 10.4 mph - 0.04 in   Overcast
12:15 PM 57.2 °F 53.6 °F 88% 30.02 in 10.0 mi NE 9.2 mph 16.1 mph N/A   Overcast
12:35 PM 59.0 °F 53.6 °F 82% 30.02 in 10.0 mi NE 9.2 mph - N/A   Overcast
12:55 PM 59.0 °F 53.6 °F 82% 30.01 in 10.0 mi NE 10.4 mph - N/A   Overcast
1:15 PM 59.0 °F 53.6 °F 82% 30.02 in 10.0 mi North 6.9 mph - N/A   Overcast
1:35 PM 59.0 °F 53.6 °F 82% 30.02 in 10.0 mi North 5.8 mph - N/A   Overcast
1:55 PM 59.0 °F 53.6 °F 82% 30.02 in 10.0 mi North 6.9 mph - N/A   Overcast
2:15 PM 59.0 °F 53.6 °F 82% 30.02 in 10.0 mi North 8.1 mph - N/A   Overcast
2:35 PM 57.2 °F 53.6 °F 88% 30.03 in 10.0 mi NNW 5.8 mph - N/A   Overcast
2:55 PM 57.2 °F 53.6 °F 88% 30.03 in 5.0 mi NNW 6.9 mph - N/A   Overcast
3:15 PM 57.2 °F 53.6 °F 88% 30.04 in 5.0 mi North 6.9 mph - N/A   Overcast
3:35 PM 57.2 °F 53.6 °F 88% 30.04 in 9.0 mi North 8.1 mph - N/A   Overcast
3:55 PM 57.2 °F 53.6 °F 88% 30.04 in 5.0 mi NNW 6.9 mph - N/A   Overcast
4:15 PM 57.2 °F 51.8 °F 82% 30.05 in 10.0 mi North 6.9 mph - N/A   Overcast
4:35 PM 57.2 °F 51.8 °F 82% 30.06 in 10.0 mi North 10.4 mph - N/A   Overcast
4:55 PM 57.2 °F 51.8 °F 82% 30.06 in 10.0 mi North 6.9 mph - N/A   Overcast
5:15 PM 57.2 °F 51.8 °F 82% 30.06 in 3.0 mi North 9.2 mph - N/A   Overcast
5:35 PM 55.4 °F 51.8 °F 88% 30.08 in 7.0 mi North 10.4 mph 16.1 mph N/A   Overcast
5:55 PM 55.4 °F 51.8 °F 88% 30.08 in 3.0 mi North 8.1 mph - N/A   Overcast
6:15 PM 55.4 °F 51.8 °F 88% 30.09 in 4.0 mi North 6.9 mph - N/A   Overcast
6:35 PM 55.4 °F 50.0 °F 82% 30.10 in 6.0 mi North 9.2 mph - N/A   Overcast
6:55 PM 53.6 °F 50.0 °F 88% 30.10 in 9.0 mi North 11.5 mph - N/A   Overcast
7:15 PM 53.6 °F 50.0 °F 88% 30.10 in 10.0 mi North 9.2 mph - N/A   Overcast
7:35 PM 53.6 °F 50.0 °F 88% 30.10 in 10.0 mi North 9.2 mph - N/A   Overcast
7:55 PM 53.6 °F 48.2 °F 82% 30.11 in 10.0 mi North 8.1 mph - N/A   Overcast
8:15 PM 53.6 °F 48.2 °F 82% 30.11 in 10.0 mi North 10.4 mph 16.1 mph N/A   Overcast
8:35 PM 53.6 °F 48.2 °F 82% 30.11 in 10.0 mi North 6.9 mph - N/A   Overcast
8:55 PM 53.6 °F 48.2 °F 82% 30.12 in 10.0 mi North 6.9 mph - N/A   Overcast
9:15 PM 53.6 °F 48.2 °F 82% 30.12 in 10.0 mi North 6.9 mph - N/A   Overcast
9:35 PM 53.6 °F 48.2 °F 82% 30.13 in 10.0 mi North 6.9 mph - N/A   Overcast
9:55 PM 53.6 °F 48.2 °F 82% 30.14 in 10.0 mi North 6.9 mph - N/A   Overcast
10:15 PM 53.6 °F 48.2 °F 82% 30.15 in 10.0 mi North 6.9 mph - N/A   Overcast
10:35 PM 53.6 °F 48.2 °F 82% 30.15 in 10.0 mi North 8.1 mph - N/A   Overcast
10:55 PM 53.6 °F 48.2 °F 82% 30.16 in 10.0 mi North 6.9 mph - N/A   Overcast
11:15 PM 53.6 °F 48.2 °F 82% 30.15 in 10.0 mi North 6.9 mph - N/A   Overcast
11:35 PM 53.6 °F 48.2 °F 82% 30.15 in 10.0 mi North 5.8 mph - N/A   Overcast
11:55 PM 53.6 °F 48.2 °F 82% 30.15 in 10.0 mi North 4.6 mph - N/A   Overcast